This demonstration page uses our WeatherBlox Daily Observations layout. Learn more.

Left ArrowRight Arrow

Hourly Observations for February 25, 2020

Temp ( °F °C ) Dew Point ( °F °C ) Humidity (%) Winds ( mph kmh ) Pressure ( in mb ) Visibility ( mi km ) Precip ( " mm )
12:01 am 00:01 Cloudy with Mist and Fog 43 6.1 42 5.6 97 97 E 5 7 29.77 1008 2 3 N/A
12:37 am 00:37 Cloudy with Light Rain 43 6.1 42 5.6 97 97 NE 3 6 29.76 1008 3 5 0.00 0.00
12:53 am 00:53 Cloudy with Light Rain 43 6.1 42 5.6 97 97 NE 5 7 29.74 1007 3 5 0.01 0.25
1:15 am 01:15 Cloudy with Light Rain 43 6.1 42 5.6 97 97 E 7 11 29.74 1007 7 11 0.01 0.25
1:53 am 01:53 Cloudy 43 6.1 42 5.6 97 97 N N/A 29.73 1007 8 13 0.02 0.51
2:13 am 02:13 Cloudy with Light Rain 43 6.1 42 5.6 97 97 N N/A 29.74 1007 4 6 0.02 0.51
2:53 am 02:53 Cloudy with Light Rain 43 6.1 42 5.6 97 97 E 5 7 29.72 1006 6 10 0.05 1.27
3:53 am 03:53 Cloudy with Light Rain 43 6.1 42 5.6 97 97 NE 5 7 29.71 1006 10 16 0.02 0.51
4:25 am 04:25 Cloudy 43 6.1 42 5.6 97 97 E 3 6 29.72 1006 9 14 0.00 0.00
4:53 am 04:53 Cloudy 43 6.1 42 5.6 97 97 NE 5 7 29.70 1006 10 16 0.00 0.00
5:53 am 05:53 Cloudy 43 6.1 41 5 93 93 ENE 6 9 29.70 1006 10 16 N/A
6:53 am 06:53 Cloudy with Light Rain 43 6.1 41 5 93 93 ENE 6 9 29.70 1006 10 16 0.00 0.00
7:51 am 07:51 Cloudy with Light Rain 43 6 41 5 93 93 ENE 3 6 29.74 1007 2 3 0.01 0.25
7:53 am 07:53 Cloudy with Light Rain 43 6.1 42 5.6 97 97 NE 3 6 29.72 1007 2 2 0.01 0.25
8:15 am 08:15 Cloudy with Light Rain 43 6.1 42 5.6 97 97 ENE 6 9 29.74 1007 2 2 0.00 0.00
8:22 am 08:22 Cloudy with Light Rain 43 6.1 42 5.6 97 97 ENE 6 9 29.74 1007 2 3 0.00 0.00
8:39 am 08:39 Cloudy with Mist and Fog 43 6.1 42 5.6 97 97 NE 6 9 29.75 1007 4 6 0.01 0.25
8:51 am 08:51 Cloudy with Mist and Fog 43 6 43 6 100 100 NE 7 11 29.75 1007 5 8 0.01 0.25
8:53 am 08:53 Cloudy with Mist and Fog 43 6.1 42 5.6 97 97 ENE 6 9 29.74 1007 5 8 0.01 0.25
9:53 am 09:53 Cloudy with Mist and Fog 44 6.7 42 5.6 93 93 ENE 8 13 29.75 1007 4 6 N/A
10:24 am 10:24 Cloudy with Light Rain 44 6.7 42 5.6 93 93 NE 5 7 29.77 1008 2 3 0.00 0.00
10:39 am 10:39 Cloudy with Light Rain 44 6.7 43 6.1 96 96 NE 6 9 29.77 1008 1 2 0.00 0.00
10:53 am 10:53 Cloudy with Light Rain 44 6.7 43 6.1 96 96 ENE 8 13 29.75 1008 1 2 0.01 0.25
11:15 am 11:15 Cloudy with Light Rain 45 7.2 43 6.1 93 93 ENE 7 11 29.77 1008 2 3 0.00 0.00
11:30 am 11:30 Cloudy with Mist and Fog 45 7.2 44 6.7 97 97 ENE 7 11 29.77 1008 2 2 0.01 0.25
11:53 am 11:53 Cloudy with Light Rain 45 7.2 43 6.1 93 93 NNE 6 9 29.76 1008 2 2 0.01 0.25
12:23 pm 12:23 Cloudy with Mist and Fog 45 7.2 43 6.1 93 93 NNE 7 11 29.78 1008 2 3 0.01 0.25
12:30 pm 12:30 Cloudy with Mist and Fog 45 7.2 43 6.1 93 93 N 7 11 29.78 1008 2 2 0.01 0.25
12:49 pm 12:49 Cloudy with Mist and Fog 45 7 43 6 93 93 NNE 5 7 29.78 1008 2 2 0.01 0.25
12:53 pm 12:53 Cloudy with Mist and Fog 45 7.2 43 6.1 93 93 NNE 3 6 29.77 1008 2 2 0.02 0.51
1:13 pm 13:13 Cloudy with Mist and Fog 45 7.2 44 6.7 97 97 NE 7 11 29.78 1008 2 3 N/A
1:31 pm 13:31 Cloudy with Mist and Fog 45 7.2 44 6.7 97 97 NE 7 11 29.78 1008 4 6 N/A
1:53 pm 13:53 Cloudy with Mist and Fog 45 7.2 43 6.1 93 93 NE 8 13 29.76 1008 3 5 N/A
2:53 pm 14:53 Cloudy with Mist and Fog 45 7.2 43 6.1 93 93 N 6 9 29.78 1008 6 10 N/A
3:01 pm 15:01 Cloudy with Mist and Fog 45 7.2 44 6.7 97 97 N 5 7 29.79 1009 3 4 N/A
3:16 pm 15:16 Cloudy with Mist and Fog 45 7.2 43 6.1 93 93 NNE 7 11 29.79 1009 2 3 N/A
3:23 pm 15:23 Cloudy with Mist and Fog 44 6.7 43 6.1 96 96 N 6 9 29.79 1009 2 2 N/A
3:32 pm 15:32 Cloudy with Mist and Fog 44 6.7 43 6.1 96 96 N 7 11 29.79 1009 2 3 N/A
3:53 pm 15:53 Cloudy with Mist and Fog 45 7.2 43 6.1 93 93 NNE 7 11 29.78 1009 3 5 N/A
4:51 pm 16:51 Cloudy with Light Rain 45 7 43 6 93 93 N 5 7 29.82 1010 2 3 0.00 0.00
4:53 pm 16:53 Cloudy with Light Rain 45 7.2 43 6.1 93 93 NNE 3 6 29.81 1009 2 3 0.00 0.00
5:03 pm 17:03 Cloudy with Light Rain 45 7.2 43 6.1 93 93 NNE 3 6 29.82 1010 2 2 0.01 0.25
5:17 pm 17:17 Cloudy with Mist and Fog 45 7.2 43 6.1 93 93 NNE 5 7 29.83 1010 2 3 0.01 0.25
5:34 pm 17:34 Cloudy with Mist and Fog 44 6.7 43 6.1 96 96 N 5 7 29.84 1010 3 5 0.01 0.25
5:53 pm 17:53 Cloudy with Mist and Fog 44 6.7 43 6.1 96 96 N 3 6 29.83 1010 5 8 0.01 0.25
6:16 pm 18:16 Cloudy with Mist and Fog 44 6.7 43 6.1 96 96 N 5 7 29.86 1011 3 4 N/A
6:28 pm 18:28 Cloudy with Mist and Fog 44 6.7 42 5.6 93 93 NNE 6 9 29.86 1011 4 6 N/A
6:53 pm 18:53 Cloudy with Mist and Fog 43 6.1 42 5.6 97 97 N 6 9 29.86 1011 5 8 N/A
7:53 pm 19:53 Cloudy with Mist and Fog 42 5.6 41 5 96 96 NNW 6 9 29.88 1012 3 5 N/A
8:08 pm 20:08 Cloudy with Mist and Fog 42 5.6 41 5 96 96 NNW 6 9 29.90 1013 3 4 N/A
8:31 pm 20:31 Cloudy with Mist and Fog 41 5 40 4.4 96 96 NW 5 7 29.90 1013 3 4 N/A
8:42 pm 20:42 Cloudy with Mist and Fog 41 5 40 4.4 96 96 N 5 7 29.90 1013 3 4 N/A
8:53 pm 20:53 Cloudy with Mist and Fog 41 5 40 4.4 96 96 NNW 6 9 29.89 1012 3 4 N/A
9:05 pm 21:05 Cloudy with Mist and Fog 41 5 40 4.4 96 96 N 6 9 29.91 1013 3 5 N/A
9:29 pm 21:29 Cloudy with Mist and Fog 41 5 40 4.4 96 96 N 6 9 29.91 1013 3 5 N/A
9:53 pm 21:53 Cloudy with Mist and Fog 41 5 40 4.4 96 96 N 5 7 29.90 1013 3 5 N/A
10:48 pm 22:48 Cloudy with Mist and Fog 39 4 39 4 100 100 N 3 6 29.92 1013 5 8 N/A
10:53 pm 22:53 Cloudy with Mist and Fog 40 4.4 39 3.9 97 97 N 5 7 29.90 1013 4 6 N/A
11:53 pm 23:53 Cloudy 39 3.9 37 2.8 93 93 N 6 9 29.90 1013 8 13 N/A

Powered by AerisWeather